Location: Sevilla
(37.3933°N, 5.9839°W)
Time: 04:26:37
(UTC+02:00)

Vanguard 3 - Pass Details

Date: 27 June 2024
Orbit: 508 x 3231 km, 33.4° (Epoch: 15 July)

Event Time Altitude Azimuth Distance (km) Brightness Sun altitude
Rises 07:07:56 0° 210° (SSW) 7,157 11.4 -0.4°
Reaches altitude 10° 07:13:56 10° 201° (SSW) 5,999 11.1 0.6°
Maximum altitude 07:28:05 30° 150° (SSE) 3,831 10.7 3.1°
Drops below altitude 10° 07:38:13 10° 96° (E) 4,289 12.0 4.9°
Sets 07:41:35 0° 86° (E) 4,913 12.7 5.5°
